Time,TemperatureF,DewpointF,PressureIn,WindDirection,WindDirectionDegrees,WindSpeedMPH,WindSpeedGustMPH,Humidity,HourlyPrecipIn,Conditions,Clouds,dailyrainin,SoftwareType,DateUTC
2013-08-25 00:12:00,80.0,69.0,30.01,North,0,0.0,0.0,69,0.00,,,0.00,,2013-08-25 05:12:00,
2013-08-25 00:22:00,80.0,69.0,30.01,North,0,0.0,0.0,70,0.00,,,0.00,,2013-08-25 05:22:00,
2013-08-25 00:52:00,80.0,70.0,30.02,North,0,0.0,0.0,71,0.00,,,0.00,,2013-08-25 05:52:00,
2013-08-25 01:03:00,80.0,70.0,30.02,North,0,0.0,0.0,71,0.00,,,0.00,,2013-08-25 06:03:00,
2013-08-25 01:12:00,80.0,70.0,30.02,North,0,0.0,0.0,71,0.00,,,0.00,,2013-08-25 06:12:00,
2013-08-25 01:20:00,78.0,69.0,30.03,North,0,0.0,0.0,74,0.00,,,0.00,,2013-08-25 06:20:00,
2013-08-25 01:22:00,79.0,70.0,30.02,North,0,0.0,0.0,74,0.00,,,0.00,,2013-08-25 06:22:00,
2013-08-25 01:52:00,78.0,69.0,30.03,North,0,0.0,0.0,74,0.00,,,0.00,,2013-08-25 06:52:00,
2013-08-25 02:01:00,78.0,69.0,30.03,North,0,0.0,0.0,74,0.00,,,0.00,,2013-08-25 07:01:00,
2013-08-25 02:12:00,78.0,69.0,30.03,North,0,0.0,0.0,74,0.00,,,0.00,,2013-08-25 07:12:00,
2013-08-25 02:50:00,76.0,68.0,30.02,North,0,0.0,0.0,77,0.00,,,0.00,,2013-08-25 07:50:00,
2013-08-25 02:52:00,77.0,69.0,30.03,North,0,0.0,0.0,77,0.00,,,0.00,,2013-08-25 07:52:00,
2013-08-25 03:02:00,77.0,69.0,30.03,North,0,0.0,0.0,77,0.00,,,0.00,,2013-08-25 08:02:00,
2013-08-25 03:12:00,77.0,69.0,30.03,North,0,0.0,0.0,77,0.00,,,0.00,,2013-08-25 08:12:00,
2013-08-25 03:21:00,76.0,68.0,30.02,North,0,0.0,0.0,77,0.00,,,0.00,,2013-08-25 08:21:00,
2013-08-25 03:32:00,76.0,68.0,30.02,North,0,0.0,0.0,77,0.00,,,0.00,,2013-08-25 08:32:00,
2013-08-25 04:11:00,76.0,68.0,30.03,North,0,0.0,0.0,77,0.00,,,0.00,,2013-08-25 09:11:00,
2013-08-25 04:22:00,75.0,68.0,30.03,North,0,0.0,0.0,78,0.00,,,0.00,,2013-08-25 09:22:00,
2013-08-25 04:34:00,75.0,68.0,30.03,North,0,0.0,0.0,78,0.00,,,0.00,,2013-08-25 09:34:00,
2013-08-25 04:55:00,74.0,67.0,30.03,North,0,0.0,0.0,79,0.00,,,0.00,,2013-08-25 09:55:00,
2013-08-25 05:03:00,74.0,67.0,30.03,North,0,0.0,0.0,79,0.00,,,0.00,,2013-08-25 10:03:00,
2013-08-25 05:22:00,73.0,66.0,30.03,North,0,0.0,0.0,80,0.00,,,0.00,,2013-08-25 10:22:00,
2013-08-25 05:53:00,71.0,65.0,30.04,North,0,0.0,0.0,81,0.00,,,0.00,,2013-08-25 10:53:00,
2013-08-25 06:02:00,71.0,65.0,30.04,North,0,0.0,0.0,81,0.00,,,0.00,,2013-08-25 11:02:00,
2013-08-25 06:12:00,71.0,65.0,30.04,North,0,0.0,0.0,81,0.00,,,0.00,,2013-08-25 11:12:00,
2013-08-25 06:22:00,71.0,65.0,30.04,North,0,0.0,0.0,82,0.00,,,0.00,,2013-08-25 11:22:00,
2013-08-25 06:52:00,70.0,65.0,30.04,North,0,0.0,0.0,83,0.00,,,0.00,,2013-08-25 11:52:00,
2013-08-25 07:12:00,70.0,65.0,30.04,North,0,0.0,0.0,84,0.00,,,0.00,,2013-08-25 12:12:00,
2013-08-25 07:22:00,70.0,65.0,30.05,North,0,0.0,0.0,84,0.00,,,0.00,,2013-08-25 12:22:00,
2013-08-25 07:32:00,70.0,65.0,30.05,North,0,0.0,0.0,84,0.00,,,0.00,,2013-08-25 12:32:00,
2013-08-25 07:52:00,70.0,65.0,30.05,North,0,0.0,0.0,84,0.00,,,0.00,,2013-08-25 12:52:00,
2013-08-25 08:21:00,70.0,66.0,30.05,North,0,0.0,0.0,86,0.00,,,0.00,,2013-08-25 13:21:00,
2013-08-25 08:32:00,70.0,66.0,30.05,North,0,0.0,0.0,86,0.00,,,0.00,,2013-08-25 13:32:00,
2013-08-25 08:52:00,70.0,66.0,30.05,North,0,0.0,0.0,86,0.00,,,0.00,,2013-08-25 13:52:00,
2013-08-25 09:11:00,78.0,69.0,30.06,North,0,0.0,0.0,74,0.00,,,0.00,,2013-08-25 14:11:00,
2013-08-25 09:25:00,78.0,69.0,30.06,North,0,0.0,0.0,74,0.00,,,0.00,,2013-08-25 14:25:00,
2013-08-25 09:52:00,82.0,70.0,30.06,North,0,0.0,0.0,68,0.00,,,0.00,,2013-08-25 14:52:00,
2013-08-25 10:11:00,83.0,70.0,30.06,North,0,0.0,0.0,65,0.00,,,0.00,,2013-08-25 15:11:00,
2013-08-25 10:23:00,83.0,70.0,30.06,North,0,0.0,0.0,65,0.00,,,0.00,,2013-08-25 15:23:00,
2013-08-25 10:35:00,83.0,70.0,30.06,North,0,0.0,0.0,65,0.00,,,0.00,,2013-08-25 15:35:00,
2013-08-25 10:44:00,83.0,70.0,30.06,North,0,0.0,0.0,65,0.00,,,0.00,,2013-08-25 15:44:00,
2013-08-25 11:14:00,85.0,70.0,30.07,North,0,0.0,0.0,61,0.00,,,0.00,,2013-08-25 16:14:00,
2013-08-25 11:24:00,85.0,70.0,30.07,North,0,0.0,0.0,61,0.00,,,0.00,,2013-08-25 16:24:00,
2013-08-25 11:33:00,85.0,70.0,30.07,North,0,0.0,0.0,61,0.00,,,0.00,,2013-08-25 16:33:00,
2013-08-25 12:10:00,89.0,68.0,30.06,North,0,0.0,0.0,51,0.00,,,0.00,,2013-08-25 17:10:00,
2013-08-25 12:22:00,89.0,68.0,30.06,North,0,0.0,0.0,51,0.00,,,0.00,,2013-08-25 17:22:00,
2013-08-25 12:53:00,89.0,68.0,30.06,North,0,0.0,0.0,51,0.00,,,0.00,,2013-08-25 17:53:00,
2013-08-25 13:02:00,89.0,68.0,30.06,North,0,0.0,0.0,51,0.00,,,0.00,,2013-08-25 18:02:00,
2013-08-25 13:52:00,94.0,68.0,30.05,North,0,0.0,0.0,43,0.00,,,0.00,,2013-08-25 18:52:00,
2013-08-25 14:11:00,95.0,68.0,30.05,North,0,0.0,0.0,42,0.00,,,0.00,,2013-08-25 19:11:00,
2013-08-25 14:22:00,95.0,68.0,30.05,North,0,0.0,0.0,42,0.00,,,0.00,,2013-08-25 19:22:00,
2013-08-25 14:53:00,96.0,68.0,30.04,North,0,0.0,0.0,41,0.00,,,0.00,,2013-08-25 19:53:00,
2013-08-25 15:12:00,96.0,68.0,30.04,North,0,0.0,0.0,40,0.00,,,0.00,,2013-08-25 20:12:00,
2013-08-25 16:22:00,94.0,67.0,30.01,North,0,0.0,0.0,42,0.00,,,0.00,,2013-08-25 21:22:00,
2013-08-25 16:34:00,94.0,67.0,30.01,North,0,0.0,0.0,42,0.00,,,0.00,,2013-08-25 21:34:00,
2013-08-25 16:54:00,94.0,67.0,30.01,North,0,0.0,0.0,42,0.00,,,0.00,,2013-08-25 21:54:00,
2013-08-25 17:24:00,93.0,68.0,30.00,North,0,0.0,0.0,44,0.00,,,0.00,,2013-08-25 22:24:00,
2013-08-25 17:53:00,94.0,68.0,29.99,North,0,0.0,0.0,43,0.00,,,0.00,,2013-08-25 22:53:00,
2013-08-25 18:12:00,92.0,68.0,30.00,North,0,0.0,0.0,45,0.00,,,0.00,,2013-08-25 23:12:00,
2013-08-25 18:23:00,91.0,68.0,30.00,North,0,0.0,0.0,47,0.00,,,0.00,,2013-08-25 23:23:00,
2013-08-25 18:42:00,92.0,68.0,29.99,North,0,0.0,0.0,45,0.00,,,0.00,,2013-08-25 23:42:00,
2013-08-25 18:53:00,92.0,68.0,29.99,North,0,0.0,0.0,45,0.00,,,0.00,,2013-08-25 23:53:00,
2013-08-25 19:11:00,89.0,68.0,30.00,North,0,0.0,0.0,51,0.00,,,0.00,,2013-08-26 00:11:00,
2013-08-25 19:22:00,89.0,68.0,30.00,North,0,0.0,0.0,50,0.00,,,0.00,,2013-08-26 00:22:00,
2013-08-25 19:32:00,89.0,68.0,30.00,North,0,0.0,0.0,50,0.00,,,0.00,,2013-08-26 00:32:00,
2013-08-25 19:42:00,89.0,68.0,30.00,North,0,0.0,0.0,50,0.00,,,0.00,,2013-08-26 00:42:00,
2013-08-25 19:52:00,89.0,68.0,30.00,North,0,0.0,0.0,50,0.00,,,0.00,,2013-08-26 00:52:00,
2013-08-25 20:01:00,89.0,68.0,30.00,North,0,0.0,0.0,50,0.00,,,0.00,,2013-08-26 01:01:00,
2013-08-25 20:52:00,84.0,67.0,30.02,North,0,0.0,0.0,57,0.00,,,0.00,,2013-08-26 01:52:00,
2013-08-25 21:02:00,84.0,67.0,30.02,North,0,0.0,0.0,57,0.00,,,0.00,,2013-08-26 02:02:00,
2013-08-25 21:22:00,82.0,67.0,30.02,North,0,0.0,0.0,60,0.00,,,0.00,,2013-08-26 02:22:00,
2013-08-25 21:32:00,82.0,67.0,30.02,North,0,0.0,0.0,60,0.00,,,0.00,,2013-08-26 02:32:00,
2013-08-25 21:42:00,82.0,67.0,30.02,North,0,0.0,0.0,60,0.00,,,0.00,,2013-08-26 02:42:00,
2013-08-25 21:52:00,82.0,67.0,30.02,North,0,0.0,0.0,60,0.00,,,0.00,,2013-08-26 02:52:00,
2013-08-25 22:22:00,80.0,67.0,30.05,North,0,0.0,0.0,64,0.00,,,0.00,,2013-08-26 03:22:00,
2013-08-25 22:34:00,80.0,67.0,30.05,North,0,0.0,0.0,64,0.00,,,0.00,,2013-08-26 03:34:00,
2013-08-25 22:56:00,80.0,68.0,30.05,North,0,0.0,0.0,66,0.00,,,0.00,,2013-08-26 03:56:00,
2013-08-25 23:05:00,80.0,68.0,30.05,North,0,0.0,0.0,66,0.00,,,0.00,,2013-08-26 04:05:00,
2013-08-25 23:14:00,80.0,68.0,30.05,North,0,0.0,0.0,66,0.00,,,0.00,,2013-08-26 04:14:00,
2013-08-25 23:53:00,79.0,68.0,30.06,North,0,0.0,0.0,68,0.00,,,0.00,,2013-08-26 04:53:00,